Time,TemperatureF,DewpointF,PressureIn,WindDirection,WindDirectionDegrees,WindSpeedMPH,WindSpeedGustMPH,Humidity,HourlyPrecipIn,Conditions,Clouds,dailyrainin,SoftwareType,DateUTC
2013-04-30 00:02:00,52.5,49.0,29.70,SSW,202,4.2,-999.0,88,-99.99,,,0.00,Acu-Link.com,2013-04-30 04:02:00,
2013-04-30 00:17:00,52.2,48.8,29.71,SSW,202,3.2,-999.0,88,-99.99,,,0.00,Acu-Link.com,2013-04-30 04:17:00,
2013-04-30 00:33:00,51.8,48.4,29.70,South,180,3.7,-999.0,88,-99.99,,,0.00,Acu-Link.com,2013-04-30 04:33:00,
2013-04-30 00:48:00,51.6,47.9,29.71,South,180,5.3,-999.0,87,-99.99,,,0.00,Acu-Link.com,2013-04-30 04:48:00,
2013-04-30 01:03:00,51.1,47.1,29.71,SSW,202,4.7,-999.0,86,-99.99,,,0.00,Acu-Link.com,2013-04-30 05:03:00,
2013-04-30 01:18:00,50.5,47.1,29.71,South,180,6.3,-999.0,88,-99.99,,,0.00,Acu-Link.com,2013-04-30 05:18:00,
2013-04-30 01:44:00,49.5,46.1,29.71,SSW,202,5.8,-999.0,88,-99.99,,,0.00,Acu-Link.com,2013-04-30 05:44:00,
2013-04-30 01:59:00,48.7,45.3,29.71,SSW,202,5.8,-999.0,88,-99.99,,,0.00,Acu-Link.com,2013-04-30 05:59:00,
2013-04-30 02:15:00,48.4,45.3,29.70,SSW,202,4.7,-999.0,89,-99.99,,,0.00,Acu-Link.com,2013-04-30 06:15:00,
2013-04-30 02:30:00,48.0,44.9,29.70,SSW,202,4.2,-999.0,89,-99.99,,,0.00,Acu-Link.com,2013-04-30 06:30:00,
2013-04-30 02:45:00,47.3,44.8,29.70,SSW,202,3.2,-999.0,91,-99.99,,,0.00,Acu-Link.com,2013-04-30 06:45:00,
2013-04-30 03:00:00,46.9,44.7,29.71,SSW,202,2.7,-999.0,92,-99.99,,,0.00,Acu-Link.com,2013-04-30 07:00:00,
2013-04-30 03:15:00,46.8,44.6,29.69,SSW,202,1.7,-999.0,92,-99.99,,,0.00,Acu-Link.com,2013-04-30 07:15:00,
2013-04-30 03:30:00,46.2,44.3,29.68,SSW,202,3.7,-999.0,93,-99.99,,,0.00,Acu-Link.com,2013-04-30 07:30:00,
2013-04-30 03:46:00,46.8,44.6,29.69,SSW,202,2.7,-999.0,92,-99.99,,,0.00,Acu-Link.com,2013-04-30 07:46:00,
2013-04-30 04:01:00,48.0,45.5,29.69,WSW,247,3.7,-999.0,91,-99.99,,,0.00,Acu-Link.com,2013-04-30 08:01:00,
2013-04-30 04:16:00,48.2,45.4,29.68,SSW,202,4.2,-999.0,90,-99.99,,,0.00,Acu-Link.com,2013-04-30 08:16:00,
2013-04-30 04:32:00,48.2,45.4,29.68,SSW,202,2.7,-999.0,90,-99.99,,,0.00,Acu-Link.com,2013-04-30 08:32:00,
2013-04-30 04:47:00,49.8,46.4,29.67,SSW,202,4.7,-999.0,88,-99.99,,,0.00,Acu-Link.com,2013-04-30 08:47:00,
2013-04-30 05:02:00,50.4,47.0,29.66,SSW,202,4.7,-999.0,88,-99.99,,,0.00,Acu-Link.com,2013-04-30 09:02:00,
2013-04-30 05:17:00,50.9,47.5,29.66,SSW,202,6.8,-999.0,88,-99.99,,,0.00,Acu-Link.com,2013-04-30 09:17:00,
2013-04-30 05:32:00,51.4,48.0,29.66,SSW,202,5.8,-999.0,88,-99.99,,,0.00,Acu-Link.com,2013-04-30 09:32:00,
2013-04-30 05:47:00,51.6,47.9,29.65,South,180,3.2,-999.0,87,-99.99,,,0.00,Acu-Link.com,2013-04-30 09:47:00,
2013-04-30 06:02:00,51.8,48.4,29.64,SSW,202,3.7,-999.0,88,-99.99,,,0.00,Acu-Link.com,2013-04-30 10:02:00,
2013-04-30 06:18:00,52.9,49.1,29.64,SSW,202,3.2,-999.0,87,-99.99,,,0.00,Acu-Link.com,2013-04-30 10:18:00,
2013-04-30 06:33:00,53.1,49.0,29.65,South,180,4.2,-999.0,86,-99.99,,,0.00,Acu-Link.com,2013-04-30 10:33:00,
2013-04-30 06:48:00,52.9,48.8,29.65,SSW,202,4.2,-999.0,86,-99.99,,,0.00,Acu-Link.com,2013-04-30 10:48:00,
2013-04-30 07:03:00,52.9,48.8,29.64,SSW,202,5.3,-999.0,86,-99.99,,,0.00,Acu-Link.com,2013-04-30 11:03:00,
2013-04-30 07:18:00,53.4,49.3,29.63,SSW,202,5.8,-999.0,86,-99.99,,,0.00,Acu-Link.com,2013-04-30 11:18:00,
2013-04-30 07:33:00,54.7,50.0,29.62,South,180,7.3,-999.0,84,-99.99,,,0.00,Acu-Link.com,2013-04-30 11:33:00,
2013-04-30 07:49:00,55.0,49.9,29.64,SSW,202,11.4,-999.0,83,-99.99,,,0.00,Acu-Link.com,2013-04-30 11:49:00,
2013-04-30 08:04:00,55.2,50.5,29.65,SSW,202,8.9,-999.0,84,-99.99,,,0.00,Acu-Link.com,2013-04-30 12:04:00,
2013-04-30 08:19:00,54.9,50.2,29.65,SSW,202,7.3,-999.0,84,-99.99,,,0.00,Acu-Link.com,2013-04-30 12:19:00,
2013-04-30 08:34:00,54.1,50.3,29.64,South,180,5.3,-999.0,87,-99.99,,,0.00,Acu-Link.com,2013-04-30 12:34:00,
2013-04-30 08:49:00,55.0,50.6,29.64,SSW,202,7.8,-999.0,85,-99.99,,,0.00,Acu-Link.com,2013-04-30 12:49:00,
2013-04-30 09:04:00,55.4,50.6,29.62,South,180,13.5,-999.0,84,-99.99,,,0.00,Acu-Link.com,2013-04-30 13:04:00,
2013-04-30 09:19:00,55.0,50.6,29.62,SSW,202,7.8,-999.0,85,-99.99,,,0.00,Acu-Link.com,2013-04-30 13:19:00,
2013-04-30 09:34:00,55.6,51.2,29.62,South,180,8.3,-999.0,85,-99.99,,,0.00,Acu-Link.com,2013-04-30 13:34:00,
2013-04-30 09:49:00,54.9,51.1,29.62,SSW,202,6.3,-999.0,87,-99.99,,,0.00,Acu-Link.com,2013-04-30 13:49:00,
2013-04-30 10:04:00,54.9,51.4,29.61,South,180,7.8,-999.0,88,-99.99,,,0.00,Acu-Link.com,2013-04-30 14:04:00,
2013-04-30 10:19:00,56.8,52.3,29.60,SSE,157,5.8,-999.0,85,-99.99,,,0.00,Acu-Link.com,2013-04-30 14:19:00,
2013-04-30 10:34:00,58.1,52.3,29.60,SSW,202,13.0,-999.0,81,-99.99,,,0.01,Acu-Link.com,2013-04-30 14:34:00,
2013-04-30 10:50:00,61.0,53.4,29.59,South,180,7.3,-999.0,76,-99.99,,,0.01,Acu-Link.com,2013-04-30 14:50:00,
2013-04-30 11:05:00,60.4,53.2,29.60,SSW,202,10.9,-999.0,77,-99.99,,,0.03,Acu-Link.com,2013-04-30 15:05:00,
2013-04-30 11:20:00,62.1,54.1,29.60,South,180,11.4,-999.0,75,-99.99,,,0.03,Acu-Link.com,2013-04-30 15:20:00,
2013-04-30 11:35:00,62.6,54.6,29.61,SSW,202,8.3,-999.0,75,-99.99,,,0.03,Acu-Link.com,2013-04-30 15:35:00,
2013-04-30 11:50:00,62.8,54.4,29.60,SSW,202,7.3,-999.0,74,-99.99,,,0.03,Acu-Link.com,2013-04-30 15:50:00,
2013-04-30 12:05:00,63.7,54.9,29.59,SSW,202,14.5,-999.0,73,-99.99,,,0.03,Acu-Link.com,2013-04-30 16:05:00,
2013-04-30 12:20:00,66.7,55.8,29.59,SSW,202,17.1,-999.0,68,-99.99,,,0.03,Acu-Link.com,2013-04-30 16:20:00,
2013-04-30 12:35:00,68.0,56.2,29.59,SSW,202,6.8,-999.0,66,-99.99,,,0.03,Acu-Link.com,2013-04-30 16:35:00,
2013-04-30 12:50:00,67.1,54.9,29.57,SE,135,18.6,-999.0,65,-99.99,,,0.03,Acu-Link.com,2013-04-30 16:50:00,
2013-04-30 13:05:00,67.5,55.3,29.57,SSW,202,19.1,-999.0,65,-99.99,,,0.03,Acu-Link.com,2013-04-30 17:05:00,
2013-04-30 13:20:00,66.4,55.1,29.57,SSW,202,17.6,-999.0,67,-99.99,,,0.03,Acu-Link.com,2013-04-30 17:20:00,
2013-04-30 13:35:00,65.7,54.8,29.57,South,180,18.6,-999.0,68,-99.99,,,0.08,Acu-Link.com,2013-04-30 17:35:00,
2013-04-30 13:50:00,67.8,55.6,29.57,SSW,202,11.9,-999.0,65,-99.99,,,0.09,Acu-Link.com,2013-04-30 17:50:00,
2013-04-30 14:05:00,67.5,55.3,29.56,South,180,12.5,-999.0,65,-99.99,,,0.09,Acu-Link.com,2013-04-30 18:05:00,
2013-04-30 14:20:00,67.1,55.4,29.56,SSW,202,15.5,-999.0,66,-99.99,,,0.11,Acu-Link.com,2013-04-30 18:20:00,
2013-04-30 14:35:00,65.1,54.7,29.57,SW,225,23.3,-999.0,69,-99.99,,,0.18,Acu-Link.com,2013-04-30 18:35:00,
2013-04-30 14:50:00,66.2,54.9,29.57,SSE,157,9.4,-999.0,67,-99.99,,,0.18,Acu-Link.com,2013-04-30 18:50:00,
2013-04-30 15:26:00,67.1,55.4,29.56,South,180,10.9,-999.0,66,-99.99,,,0.18,Acu-Link.com,2013-04-30 19:26:00,
2013-04-30 15:41:00,66.9,55.6,29.57,SSW,202,13.5,-999.0,67,-99.99,,,0.18,Acu-Link.com,2013-04-30 19:41:00,
2013-04-30 15:56:00,68.4,55.7,29.57,SSW,202,17.6,-999.0,64,-99.99,,,0.18,Acu-Link.com,2013-04-30 19:56:00,
2013-04-30 16:11:00,69.6,56.4,29.58,SSW,202,13.5,-999.0,63,-99.99,,,0.18,Acu-Link.com,2013-04-30 20:11:00,
2013-04-30 16:26:00,69.8,56.2,29.59,SW,225,11.4,-999.0,62,-99.99,,,0.20,Acu-Link.com,2013-04-30 20:26:00,
2013-04-30 16:41:00,69.6,56.4,29.59,SSW,202,15.0,-999.0,63,-99.99,,,0.22,Acu-Link.com,2013-04-30 20:41:00,
2013-04-30 16:56:00,70.3,56.7,29.60,SSW,202,7.3,-999.0,62,-99.99,,,0.22,Acu-Link.com,2013-04-30 20:56:00,
2013-04-30 17:12:00,70.2,57.0,29.61,SSE,157,7.8,-999.0,63,-99.99,,,0.22,Acu-Link.com,2013-04-30 21:12:00,
2013-04-30 17:27:00,70.0,56.8,29.61,South,180,6.3,-999.0,63,-99.99,,,0.22,Acu-Link.com,2013-04-30 21:27:00,
2013-04-30 17:42:00,70.0,57.3,29.61,SSW,202,5.8,-999.0,64,-99.99,,,0.22,Acu-Link.com,2013-04-30 21:42:00,
2013-04-30 17:57:00,69.8,57.1,29.62,SSW,202,4.7,-999.0,64,-99.99,,,0.22,Acu-Link.com,2013-04-30 21:57:00,
2013-04-30 18:13:00,69.6,56.9,29.62,SSW,202,7.8,-999.0,64,-99.99,,,0.22,Acu-Link.com,2013-04-30 22:13:00,
2013-04-30 18:28:00,70.5,56.8,29.64,South,180,6.3,-999.0,62,-99.99,,,0.22,Acu-Link.com,2013-04-30 22:28:00,
2013-04-30 18:43:00,72.1,57.4,29.64,South,180,4.2,-999.0,60,-99.99,,,0.22,Acu-Link.com,2013-04-30 22:43:00,
2013-04-30 18:58:00,72.0,57.3,29.65,South,180,4.2,-999.0,60,-99.99,,,0.22,Acu-Link.com,2013-04-30 22:58:00,
2013-04-30 19:13:00,71.6,57.0,29.64,SSW,202,5.3,-999.0,60,-99.99,,,0.22,Acu-Link.com,2013-04-30 23:13:00,
2013-04-30 19:28:00,70.9,56.8,29.65,SSW,202,4.2,-999.0,61,-99.99,,,0.22,Acu-Link.com,2013-04-30 23:28:00,
2013-04-30 19:43:00,70.2,56.6,29.66,SSW,202,5.8,-999.0,62,-99.99,,,0.22,Acu-Link.com,2013-04-30 23:43:00,
2013-04-30 19:58:00,69.4,56.2,29.66,SSW,202,7.8,-999.0,63,-99.99,,,0.22,Acu-Link.com,2013-04-30 23:58:00,
2013-04-30 20:14:00,69.8,56.6,29.69,North,0,2.7,-999.0,63,-99.99,,,0.22,Acu-Link.com,2013-05-01 00:14:00,
2013-04-30 20:29:00,63.5,53.5,29.71,North,0,10.4,-999.0,70,-99.99,,,0.22,Acu-Link.com,2013-05-01 00:29:00,
2013-04-30 20:44:00,58.8,49.8,29.72,WNW,292,1.7,-999.0,72,-99.99,,,0.22,Acu-Link.com,2013-05-01 00:44:00,
2013-04-30 20:59:00,59.7,50.3,29.73,WNW,292,0.0,-999.0,71,-99.99,,,0.22,Acu-Link.com,2013-05-01 00:59:00,
2013-04-30 21:14:00,59.4,50.4,29.75,WNW,292,0.0,-999.0,72,-99.99,,,0.22,Acu-Link.com,2013-05-01 01:14:00,
2013-04-30 21:30:00,58.6,50.0,29.76,WNW,292,3.2,-999.0,73,-99.99,,,0.22,Acu-Link.com,2013-05-01 01:30:00,
2013-04-30 21:45:00,59.5,50.5,29.77,NW,315,3.7,-999.0,72,-99.99,,,0.22,Acu-Link.com,2013-05-01 01:45:00,
2013-04-30 22:00:00,57.4,49.5,29.78,WNW,292,4.7,-999.0,75,-99.99,,,0.22,Acu-Link.com,2013-05-01 02:00:00,
2013-04-30 22:15:00,58.6,50.0,29.78,WNW,292,5.8,-999.0,73,-99.99,,,0.22,Acu-Link.com,2013-05-01 02:15:00,
2013-04-30 22:30:00,59.4,50.0,29.79,WNW,292,2.2,-999.0,71,-99.99,,,0.22,Acu-Link.com,2013-05-01 02:30:00,
2013-04-30 22:46:00,58.5,49.5,29.80,WNW,292,0.0,-999.0,72,-99.99,,,0.22,Acu-Link.com,2013-05-01 02:46:00,
2013-04-30 23:01:00,56.7,49.2,29.81,East,90,4.7,-999.0,76,-99.99,,,0.22,Acu-Link.com,2013-05-01 03:01:00,
2013-04-30 23:16:00,52.5,47.5,29.80,ESE,112,3.2,-999.0,83,-99.99,,,0.22,Acu-Link.com,2013-05-01 03:16:00,
2013-04-30 23:31:00,52.7,47.7,29.80,ESE,112,0.0,-999.0,83,-99.99,,,0.22,Acu-Link.com,2013-05-01 03:31:00,
2013-04-30 23:46:00,52.7,48.0,29.81,SE,135,1.7,-999.0,84,-99.99,,,0.22,Acu-Link.com,2013-05-01 03:46:00,